[Date Prev][Date Next][Thread Prev][Thread Next] - [Date Index][Thread Index][Author Index]
2 Line ISS Keps 1-7
- Subject: [sarex] 2 Line ISS Keps 1-7
- From: "Dave Larsen PhD" <doc@xxxxxxxxxxx>
- Date: Thu, 6 Jan 2005 17:59:08 -0800
ISS
1 25544U 98067A 05007.00588441 .00014161 00000-0 10842-3 0 5337
2 25544 51.6391 5.0545 0003584 171.3818 238.2117 15.72431549350345
----
Via the sarex mailing list at AMSAT.ORG courtesy of AMSAT-NA.
To unsubscribe, send "unsubscribe sarex" to Majordomo@amsat.org
AMSAT Home